FW7746 Weather Reports


time (UTC)temp
C
wind
direction
speed
KPH
gust
KPH
rain 1hr
cm
rain 24hr
cm
rain mn
cm
humidity
%
barometer
mb
20260906231103 12 284 0.0 0.0 0.00 0.86 0.71 79 1016.3
20260906230604 11 289 0.0 0.0 0.00 0.86 0.71 81 1016.1
20260906230104 11 289 0.0 0.0 0.00 0.86 0.71 84 1016.1
20260906225104 11 289 0.0 4.8 0.00 0.86 0.71 85 1016.1
20260906224604 11 289 0.0 0.0 0.00 0.86 0.71 85 1016.2
20260906223103 10 289 0.0 0.0 0.03 0.86 0.71 85 1016.2
20260906222603 10 289 0.0 0.0 0.05 0.86 0.71 87 1016.2
20260906221604 10 289 0.0 0.0 0.13 0.86 0.71 88 1016.1
20260906221103 10 289 0.0 0.0 0.13 0.86 0.71 88 1016.0
20260906220603 10 289 0.0 0.0 0.13 0.86 0.71 88 1016.0
20260906220103 10 289 0.0 0.0 0.13 0.86 0.71 88 1015.9
20260906215604 10 289 0.0 0.0 0.13 0.86 0.71 87 1015.9
20260906215105 10 289 0.0 0.0 0.13 0.86 0.71 89 1016.0
20260906214604 10 289 0.0 0.0 0.13 0.86 0.71 89 1015.9
20260906213604 10 289 0.0 0.0 0.10 0.84 0.69 89 1015.9
20260906213104 10 289 0.0 0.0 0.10 0.84 0.69 88 1015.9
20260906212604 10 288 0.0 0.0 0.13 0.81 0.66 87 1015.8
20260906212103 10 288 0.0 0.0 0.13 0.79 0.64 88 1015.9
20260906210604 11 288 0.0 0.0 0.13 0.74 0.58 86 1015.6
20260906210104 11 289 0.0 0.0 0.13 0.74 0.58 85 1015.4
20260906205604 10 290 0.0 0.0 0.13 0.74 0.58 87 1015.3
20260906205104 10 290 0.0 4.8 0.13 0.74 0.58 88 1015.2
20260906204604 10 290 0.0 3.2 0.13 0.74 0.58 89 1015.1
20260906204104 10 289 0.0 1.6 0.13 0.74 0.58 89 1015.2
20260906203604 10 286 0.0 3.2 0.13 0.74 0.58 89 1015.2
20260906203103 10 266 0.0 3.2 0.13 0.74 0.58 88 1015.1
20260906202604 10 263 0.0 3.2 0.08 0.69 0.53 86 1015.2
20260906202104 10 262 0.0 4.8 0.05 0.66 0.51 83 1015.2
20260906201104 11 218 0.0 0.0 0.00 0.61 0.46 73 1014.8
20260906200604 12 204 0.0 0.0 0.00 0.61 0.46 72 1014.8
20260906200104 12 204 0.0 0.0 0.00 0.61 0.46 72 1014.9
20260906195604 12 204 0.0 1.6 0.00 0.61 0.46 72 1015.0
20260906195105 12 204 0.0 0.0 0.00 0.61 0.46 72 1014.9
20260906194604 12 204 0.0 0.0 0.00 0.61 0.46 72 1015.0
20260906194103 12 204 0.0 0.0 0.00 0.61 0.46 71 1015.0
20260906193604 12 204 0.0 0.0 0.00 0.61 0.46 67 1015.0
20260906193103 12 248 0.0 0.0 0.00 0.61 0.46 66 1015.0
20260906192604 12 248 0.0 0.0 0.00 0.61 0.46 66 1015.0
20260906192103 12 248 0.0 0.0 0.00 0.61 0.46 67 1015.0
20260906191104 12 244 0.0 0.0 0.00 0.61 0.46 66 1015.0
20260906190603 12 244 0.0 0.0 0.00 0.61 0.46 66 1015.0
20260906190104 12 243 0.0 1.6 0.00 0.61 0.46 66 1015.0
20260906185603 12 186 0.0 0.0 0.00 0.61 0.46 68 1014.9
20260906185104 12 186 0.0 0.0 0.00 0.61 0.46 67 1014.9
20260906184604 12 186 0.0 0.0 0.00 0.61 0.46 68 1014.9
20260906184103 12 185 0.0 0.0 0.00 0.61 0.46 67 1014.9
20260906183604 12 182 0.0 0.0 0.00 0.61 0.46 67 1014.9
20260906182604 12 209 0.0 3.2 0.00 0.61 0.46 65 1015.0
20260906182103 12 209 0.0 0.0 0.00 0.61 0.46 65 1015.0
20260906181604 13 207 0.0 4.8 0.00 0.61 0.46 64 1015.0
20260906181103 13 216 1.6 4.8 0.00 0.61 0.46 63 1015.0
20260906180103 12 216 0.0 1.6 0.00 0.61 0.46 68 1015.1
20260906175604 12 225 0.0 4.8 0.00 0.61 0.46 66 1015.0
20260906175104 12 197 0.0 1.6 0.00 0.61 0.46 70 1015.0
20260906174604 12 200 0.0 3.2 0.00 0.61 0.46 70 1015.1
20260906174104 12 261 1.6 9.7 0.00 0.61 0.46 69 1015.1
20260906173604 11 166 1.6 4.8 0.00 0.61 0.46 71 1015.0
20260906172604 12 221 0.0 11.3 0.00 0.61 0.46 71 1015.1
20260906172104 11 165 0.0 4.8 0.00 0.61 0.46 71 1015.0
20260906171604 11 191 0.0 3.2 0.00 0.61 0.46 74 1015.1
20260906171104 11 204 0.0 3.2 0.00 0.61 0.46 74 1015.1
20260906170604 11 198 0.0 4.8 0.00 0.61 0.46 73 1015.1
20260906170106 11 233 4.8 12.9 0.00 0.61 0.46 74 1015.2
20260906165603 11 141 1.6 11.3 0.00 0.61 0.46 74 1015.2
20260906165104 10 150 0.0 3.2 0.00 0.61 0.46 77 1015.2
20260906164604 10 140 0.0 1.6 0.00 0.61 0.46 77 1015.2
20260906164104 10 141 0.0 4.8 0.00 0.61 0.46 78 1015.3
20260906163603 10 114 1.6 3.2 0.00 0.61 0.46 78 1015.2
20260906163105 10 184 0.0 3.2 0.00 0.61 0.46 80 1015.3
20260906162604 10 211 1.6 8.0 0.00 0.61 0.46 80 1015.3
20260906162103 10 211 1.6 4.8 0.00 0.61 0.46 80 1015.2
20260906161604 9 164 0.0 1.6 0.00 0.61 0.46 82 1015.2
20260906161104 9 138 0.0 3.2 0.00 0.61 0.46 83 1015.1
20260906160604 9 117 1.6 8.0 0.00 0.61 0.46 83 1015.1
20260906160104 9 203 0.0 3.2 0.00 0.61 0.46 84 1015.1
20260906155604 9 196 0.0 0.0 0.00 0.61 0.46 85 1015.0
20260906155104 8 196 0.0 3.2 0.00 0.61 0.46 85 1015.2
20260906154604 8 221 1.6 3.2 0.00 0.61 0.46 86 1015.2
20260906154104 8 206 0.0 4.8 0.00 0.61 0.46 86 1015.1
20260906153104 8 164 0.0 3.2 0.00 0.61 0.46 87 1015.0
20260906152604 8 196 0.0 0.0 0.00 0.61 0.46 87 1015.0
20260906152105 7 200 0.0 3.2 0.00 0.61 0.46 87 1014.9
20260906151604 7 158 0.0 4.8 0.00 0.61 0.46 88 1015.0
20260906151104 7 140 0.0 0.0 0.00 0.61 0.46 89 1015.0
20260906150104 7 196 0.0 0.0 0.00 0.61 0.46 90 1015.0
20260906145604 6 198 0.0 1.6 0.00 0.61 0.46 91 1015.0
20260906145104 6 219 0.0 3.2 0.00 0.61 0.46 92 1015.0
20260906144604 6 198 0.0 1.6 0.00 0.61 0.46 92 1014.9
20260906144104 6 186 0.0 0.0 0.00 0.61 0.46 92 1014.8
20260906143103 6 186 0.0 0.0 0.00 0.61 0.46 92 1014.8
20260906142604 6 186 0.0 0.0 0.00 0.61 0.46 92 1014.8
20260906142104 6 186 0.0 0.0 0.00 0.61 0.46 92 1014.7
20260906141604 6 186 0.0 0.0 0.00 0.61 0.46 92 1014.6
20260906140604 6 185 0.0 0.0 0.00 0.61 0.46 92 1014.6
20260906140104 6 180 0.0 1.6 0.00 0.61 0.46 92 1014.6
20260906135104 6 173 0.0 1.6 0.00 0.61 0.46 92 1014.7
20260906134604 5 193 0.0 3.2 0.00 0.61 0.46 92 1014.6
20260906134103 6 201 0.0 0.0 0.00 0.61 0.46 92 1014.6
20260906133604 6 201 0.0 0.0 0.00 0.61 0.46 92 1014.5
20260906133104 6 201 0.0 0.0 0.00 0.61 0.46 92 1014.4
20260906132604 6 201 0.0 0.0 0.00 0.61 0.46 92 1014.4
20260906132104 6 175 0.0 0.0 0.00 0.61 0.46 92 1014.3
20260906131604 6 174 0.0 0.0 0.00 0.61 0.46 92 1014.3
20260906130604 6 173 0.0 0.0 0.00 0.61 0.46 92 1014.1
20260906125604 6 173 0.0 0.0 0.00 0.61 0.46 92 1014.3
20260906124604 6 161 0.0 3.2 0.00 0.61 0.46 92 1014.4
20260906124104 6 176 0.0 4.8 0.00 0.61 0.46 92 1014.6
20260906123604 6 173 0.0 1.6 0.00 0.61 0.46 92 1014.7
20260906123104 6 175 0.0 0.0 0.00 0.61 0.46 92 1014.7
20260906122604 6 173 0.0 3.2 0.00 0.61 0.46 92 1014.7
20260906122104 6 188 0.0 1.6 0.00 0.61 0.46 93 1014.8
20260906121104 6 188 0.0 1.6 0.00 0.61 0.46 93 1014.7
20260906120103 6 207 0.0 3.2 0.00 0.61 0.46 93 1014.6
20260906115603 6 113 0.0 0.0 0.00 0.61 0.46 93 1014.6
20260906114603 6 113 0.0 0.0 0.03 0.61 0.46 93 1014.5
20260906114104 6 113 0.0 0.0 0.03 0.61 0.46 93 1014.3
20260906113604 6 113 0.0 0.0 0.03 0.61 0.46 92 1014.2
20260906113104 6 113 0.0 0.0 0.03 0.61 0.46 92 1014.4
20260906112103 7 112 0.0 0.0 0.03 0.61 0.46 92 1014.8
20260906111604 7 112 0.0 0.0 0.05 0.61 0.46 92 1014.8
20260906111104 7 112 0.0 0.0 0.08 0.61 0.46 92 1014.9
20260906110603 7 111 0.0 1.6 0.10 0.61 0.46 92 1015.0
20260906110104 7 53 0.0 4.8 0.13 0.61 0.46 92 1015.2
20260906105604 7 195 0.0 1.6 0.15 0.61 0.46 92 1015.2
20260906105104 7 218 0.0 3.2 0.13 0.58 0.43 92 1015.3
20260906104604 7 213 0.0 3.2 0.15 0.58 0.43 92 1015.3
20260906104103 7 216 0.0 1.6 0.15 0.58 0.43 93 1015.4
20260906103604 7 241 1.6 9.7 0.18 0.58 0.43 93 1015.4
20260906103104 7 188 0.0 1.6 0.20 0.58 0.43 93 1015.4
20260906102604 7 168 0.0 0.0 0.23 0.58 0.43 93 1015.4
20260906102103 7 180 0.0 3.2 0.23 0.58 0.43 93 1015.4
20260906101604 7 218 0.0 4.8 0.25 0.56 0.41 93 1015.4
20260906100604 7 145 0.0 1.6 0.23 0.51 0.36 93 1015.6
20260906100105 7 167 0.0 1.6 0.23 0.48 0.33 93 1015.6
20260906095604 7 160 0.0 1.6 0.23 0.46 0.30 93 1015.6
20260906095103 7 211 0.0 3.2 0.23 0.46 0.30 93 1015.6
20260906094104 7 214 0.0 0.0 0.23 0.43 0.28 93 1015.7
20260906093604 7 214 0.0 0.0 0.20 0.41 0.25 93 1015.7
20260906093104 8 214 0.0 1.6 0.18 0.38 0.23 93 1015.6
20260906092604 8 214 0.0 0.0 0.15 0.36 0.20 93 1015.7
20260906092103 8 214 0.0 0.0 0.15 0.36 0.20 93 1015.6
20260906091604 8 214 0.0 1.6 0.10 0.30 0.15 93 1015.6
20260906090604 8 160 0.0 0.0 0.10 0.28 0.13 93 1015.6
20260906090105 8 160 0.0 0.0 0.08 0.25 0.10 93 1015.6
20260906085604 8 160 0.0 0.0 0.05 0.23 0.08 93 1015.6
20260906085105 8 160 0.0 0.0 0.05 0.25 0.08 93 1015.5
20260906084603 8 160 0.0 0.0 0.08 0.25 0.08 93 1015.4
20260906084104 8 160 0.0 0.0 0.05 0.23 0.05 93 1015.4
20260906083603 8 160 0.0 0.0 0.05 0.23 0.05 93 1015.4
20260906083104 8 160 0.0 0.0 0.05 0.23 0.05 93 1015.4
20260906081604 8 160 0.0 0.0 0.05 0.23 0.05 92 1015.5
20260906080603 8 160 0.0 0.0 0.03 0.20 0.03 92 1015.5
20260906080104 8 160 0.0 0.0 0.03 0.20 0.03 92 1015.6
20260906075603 8 160 0.0 0.0 0.03 0.20 0.03 92 1015.6
20260906075104 8 160 0.0 0.0 0.03 0.20 0.03 91 1015.7
20260906074604 8 160 0.0 0.0 0.00 0.18 0.00 91 1015.8
20260906074104 8 160 0.0 1.6 0.00 0.18 0.00 91 1015.9
20260906073104 8 160 0.0 0.0 0.00 0.18 0.00 90 1015.6
20260906072604 8 160 0.0 1.6 0.00 0.18 0.00 90 1015.6
20260906072104 8 161 0.0 1.6 0.00 0.18 0.00 90 1015.4
20260906071604 8 188 0.0 0.0 0.00 0.18 0.00 90 1015.3
20260906071103 8 200 0.0 0.0 0.00 0.18 0.00 90 1015.3
20260906070604 8 202 0.0 0.0 0.00 0.18 0.00 90 1015.3
20260906070104 8 234 0.0 0.0 0.00 0.18 0.00 91 1015.4
20260906064604 8 237 0.0 0.0 0.00 0.18 0.18 91 1015.1
20260906064104 8 237 0.0 0.0 0.00 0.18 0.18 90 1014.9
20260906063604 8 237 0.0 0.0 0.00 0.18 0.18 91 1015.4
20260906063104 8 237 0.0 0.0 0.00 0.18 0.18 91 1015.1
20260906062605 8 237 0.0 0.0 0.00 0.18 0.18 91 1015.3
20260906062104 8 237 0.0 1.6 0.00 0.18 0.18 92 1015.4
20260906061604 8 236 0.0 0.0 0.00 0.18 0.18 92 1015.4
20260906061105 8 236 0.0 0.0 0.00 0.18 0.18 92 1015.4
20260906060605 9 236 0.0 0.0 0.00 0.18 0.18 92 1015.5
20260906060104 9 236 0.0 0.0 0.00 0.18 0.18 91 1015.7
20260906055604 9 236 0.0 0.0 0.00 0.18 0.18 92 1015.8
20260906055104 9 236 0.0 0.0 0.00 0.18 0.18 92 1015.8
20260906054604 9 236 0.0 0.0 0.00 0.18 0.18 91 1015.8
20260906054104 9 236 0.0 0.0 0.00 0.18 0.18 91 1016.0
20260906053604 9 236 0.0 0.0 0.00 0.18 0.18 91 1016.0
20260906052604 9 236 0.0 0.0 0.03 0.18 0.18 90 1016.2
20260906052104 9 236 0.0 0.0 0.03 0.18 0.18 89 1016.3
20260906051604 9 236 0.0 0.0 0.05 0.18 0.18 89 1016.3
20260906051104 9 236 0.0 0.0 0.15 0.18 0.18 89 1016.4
20260906050603 9 236 0.0 0.0 0.15 0.18 0.18 89 1016.4
20260906045104 8 236 0.0 0.0 0.15 0.18 0.18 88 1016.5
20260906044604 8 236 0.0 0.0 0.15 0.18 0.18 88 1016.5
20260906044104 9 236 0.0 0.0 0.15 0.18 0.18 88 1016.6
20260906043604 9 236 0.0 3.2 0.15 0.18 0.18 87 1016.6
20260906043104 9 231 1.6 4.8 0.13 0.15 0.15 86 1016.5
20260906042604 9 268 0.0 8.0 0.13 0.15 0.15 86 1016.7
20260906042104 10 275 0.0 1.6 0.13 0.15 0.15 84 1016.8
20260906041604 10 288 0.0 0.0 0.10 0.13 0.13 81 1016.9
20260906041104 11 304 0.0 4.8 0.00 0.03 0.03 75 1016.9
20260906040604 12 206 0.0 4.8 0.00 0.03 0.03 72 1016.8
20260906040105 12 165 0.0 4.8 0.00 0.03 0.03 70 1016.7
20260906035604 12 216 1.6 4.8 0.00 0.03 0.03 67 1016.5
20260906035104 13 328 0.0 3.2 0.00 0.03 0.03 66 1016.2
20260906034604 13 329 0.0 0.0 0.00 0.03 0.03 64 1016.0
20260906034105 13 329 0.0 3.2 0.00 0.03 0.03 64 1015.8
20260906033604 13 329 0.0 0.0 0.00 0.03 0.03 63 1015.9
20260906033104 13 329 0.0 0.0 0.00 0.03 0.03 63 1015.7
20260906032604 13 329 0.0 0.0 0.00 0.03 0.03 63 1015.7
20260906031605 13 329 0.0 1.6 0.00 0.03 0.03 63 1015.6
20260906030604 13 328 0.0 0.0 0.00 0.05 0.03 64 1015.7
20260906030104 13 328 0.0 0.0 0.00 0.05 0.03 64 1015.7
20260906025104 13 329 0.0 0.0 0.00 0.08 0.03 63 1015.5
20260906024604 13 329 0.0 12.9 0.00 0.10 0.03 63 1015.3
20260906024103 13 321 0.0 3.2 0.00 0.10 0.03 61 1015.2
20260906023104 13 329 0.0 4.8 0.00 0.18 0.03 59 1015.1
20260906022604 13 267 0.0 3.2 0.00 0.20 0.03 59 1015.1
20260906022104 14 283 0.0 4.8 0.00 0.20 0.03 59 1015.2
20260906021104 14 284 1.6 4.8 0.00 0.20 0.03 57 1015.1
20260906020605 14 306 1.6 4.8 0.00 0.20 0.03 57 1015.0
20260906020105 14 241 0.0 4.8 0.00 0.20 0.03 58 1015.0
20260906015604 14 331 3.2 8.0 0.00 0.20 0.03 57 1014.9
20260906015104 15 298 1.6 4.8 0.00 0.20 0.03 57 1014.8
20260906014604 15 328 3.2 14.5 0.00 0.20 0.03 56 1014.9
20260906014104 15 338 1.6 16.1 0.00 0.20 0.03 57 1014.9
20260906013604 15 325 3.2 9.7 0.00 0.20 0.03 56 1015.0
20260906013105 15 326 1.6 19.3 0.00 0.20 0.03 56 1014.8
20260906012604 15 302 1.6 4.8 0.00 0.20 0.03 54 1014.8
20260906012103 15 302 1.6 4.8 0.00 0.20 0.03 54 1014.9
20260906011604 15 321 0.0 4.8 0.00 0.20 0.03 54 1014.8
20260906010604 15 324 3.2 12.9 0.00 0.20 0.03 53 1014.9
20260906010104 15 328 3.2 12.9 0.00 0.20 0.03 53 1014.8
20260906005604 16 321 1.6 8.0 0.00 0.20 0.03 53 1014.8
20260906004604 16 328 3.2 8.0 0.00 0.20 0.03 54 1014.7
20260906003604 16 326 6.4 12.9 0.00 0.20 0.03 53 1014.6
20260906003104 16 337 1.6 4.8 0.00 0.20 0.03 55 1014.9
20260906002604 16 328 3.2 12.9 0.00 0.20 0.03 55 1014.9
20260906002104 15 311 1.6 9.7 0.00 0.20 0.03 54 1014.9
20260906001604 15 322 4.8 12.9 0.00 0.20 0.03 54 1014.9
20260906001104 16 330 3.2 8.0 0.00 0.20 0.03 54 1014.9
20260906000604 16 326 3.2 4.8 0.00 0.20 0.03 54 1014.9
20260905235604 16 327 3.2 4.8 0.00 0.20 0.03 53 1014.9
20260905235104 16 328 3.2 4.8 0.00 0.20 0.03 52 1014.9
20260905234605 16 328 6.4 16.1 0.00 0.20 0.03 51 1014.9
20260905234104 16 320 1.6 4.8 0.00 0.20 0.03 51 1014.8
20260905233604 16 318 1.6 4.8 0.00 0.20 0.03 50 1014.7
20260905233104 17 273 1.6 4.8 0.00 0.20 0.03 48 1014.8
20260905232604 17 340 0.0 0.0 0.00 0.20 0.03 44 1014.7
20260905232104 18 350 0.0 0.0 0.00 0.20 0.03 43 1014.6
20260905231604 18 350 0.0 0.0 0.00 0.20 0.03 42 1014.6